Wetbulb
36.14 35.87 35.45 35.03 34.93 35.26 35.33 35.32 34.81 34.30 33.87 33.52 33.72 33.89 33.85 33.61 33.98 33.80 32.91 32.45 31.96 31.33 31.41 30.67 29.94 31.04 30.77 30.80 31.07 30.46 29.77 29.35 27.90 30.06 30.11 29.94 27.72 26.60 25.80 26.90 26.11 25.98 26.45
35.99 35.18 34.41 34.15 33.85 33.65 33.64 33.91 33.94 32.90 32.90 32.44 32.49 32.33 32.09 32.04 32.35 32.08 30.38 30.49 30.03 29.33 29.39 29.38 28.65 29.83 29.26 29.17 28.92 28.07 27.93 28.11 26.47 24.70 27.04 26.14 25.13 25.50 24.47 24.38 23.77 24.52 24.77
34.52 33.95 33.32 33.04 32.86 32.76 32.75 32.95 32.80 32.28 31.74 31.35 31.18 30.58 30.28 30.35 30.29 30.45 29.82 29.06 28.54 28.25 28.25 27.82 27.80 28.75 27.58 27.57 27.28 26.66 26.52 26.57 26.67 24.88 23.67 25.02 24.61 23.78 22.51 23.51 22.50 23.39 23.60
33.93 33.19 32.54 32.18 32.03 32.17 32.21 32.26 32.05 31.98 31.06 30.13 29.94 29.58 29.54 29.42 29.37 28.95 29.11 28.42 27.89 27.48 27.12 26.86 26.98 26.40 25.77 25.91 25.03 24.42 24.90 24.24 23.47 22.88 22.31 21.55 21.99 21.60 21.24 18.93 18.27 21.03 20.00
32.88 32.32 32.21 31.97 31.69 31.47 31.20 31.21 31.06 31.07 30.89 30.54 29.71 29.39 28.98 28.68 28.68 28.26 27.69 27.51 26.76 25.88 25.54 25.02 25.07 24.24 24.14 23.65 23.89 23.13 22.36 21.76 21.03 20.18 19.41 19.23 18.57 17.15 15.73 17.02 15.94 16.91 18.52
32.96 32.30 32.20 31.02 30.25 30.14 30.06 29.80 29.61 29.51 29.72 29.72 29.09 29.00 28.74 28.92 27.76 27.68 27.53 26.39 25.51 24.74 23.40 23.62 24.05 23.14 22.55 21.91 21.78 21.45 20.87 19.23 17.55 16.92 17.06 15.13 15.09 15.28 15.70 14.32 14.06 11.47 11.71
32.64 31.64 30.20 29.95 28.98 29.00 28.96 28.60 28.14 28.37 29.20 29.01 28.56 28.29 27.82 28.43 27.59 26.86 25.94 25.36 24.15 23.65 23.08 22.39 21.95 22.39 21.16 20.45 18.74 18.04 16.91 18.16 16.97 16.18 14.20 13.84 13.46 14.07 13.70 11.97 11.26 10.14 10.49
31.36 30.47 29.05 28.44 27.98 27.86 27.57 27.45 27.75 28.14 27.85 27.76 27.49 27.58 27.27 27.35 26.61 25.62 24.29 23.70 22.79 22.10 21.97 21.94 21.40 21.97 20.10 18.75 17.55 15.91 14.43 14.17 14.27 15.10 14.70 14.50 14.20 14.59 13.81 12.26 10.77 10.08 11.84
29.47 28.76 28.07 27.96 27.21 26.77 26.27 26.53 27.27 27.23 26.89 26.91 26.95 26.84 26.17 25.60 26.94 24.78 23.80 22.26 20.84 20.12 20.95 21.20 20.69 20.93 19.75 17.23 15.11 12.20 11.22 9.70 12.85 12.15 12.87 13.00 12.35 12.85 12.48 10.59 6.87 6.50 6.18
28.75 28.37 28.00 27.67 27.18 26.49 26.58 26.17 26.81 27.12 26.34 25.90 25.40 25.76 25.69 24.71 25.00 24.90 23.17 21.95 18.97 18.37 18.73 19.78 19.80 19.85 19.24 16.02 13.94 12.30 8.89 7.02 8.42 6.70 7.83 9.02 9.05 9.13 9.40 8.45 7.36 3.92 4.40
27.97 27.20 26.74 26.95 26.67 27.18 26.55 26.55 25.87 25.97 25.48 24.39 23.59 23.58 23.67 24.39 24.16 24.11 22.33 20.86 19.35 17.44 16.75 16.85 18.33 17.37 17.90 16.49 14.21 11.94 9.30 6.54 6.05 5.98 7.25 7.74 7.54 7.41 7.49 7.11 6.95 5.48 3.30
25.61 25.02 24.89 25.42 26.45 26.35 25.39 25.26 25.46 25.30 23.54 22.57 22.04 21.29 21.34 22.05 23.76 22.72 20.24 19.08 18.85 16.99 15.48 15.96 16.88 15.08 15.86 14.42 13.17 10.33 7.76 5.67 6.36 5.75 5.62 4.66 3.95 4.29 4.80 5.23 5.46 5.57 6.28
22.59 22.40 23.04 24.22 25.62 25.85 25.35 23.91 23.67 23.75 22.25 21.09 20.49 19.85 18.61 20.20 21.74 23.06 20.08 18.36 16.66 15.24 15.28 15.64 15.72 12.56 10.29 11.46 10.12 6.87 3.31 5.04 4.35 3.64 2.58 2.55 2.35 2.97 2.95 3.68 4.17 4.39 4.86
21.47 20.99 21.92 22.71 24.01 24.78 25.67 24.75 24.32 23.00 21.29 20.23 20.12 18.87 17.77 18.48 19.39 20.02 18.77 17.07 16.68 15.68 15.54 12.12 11.22 10.44 7.34 3.29 4.04 3.91 3.61 2.12 1.08 1.23 0.90 1.27 2.15 1.93 1.21 1.70 -0.21 0.83 0.16
21.36 21.24 22.39 23.48 23.30 23.68 24.37 24.35 23.82 23.67 23.12 21.02 19.72 18.95 17.38 16.44 17.84 18.76 17.15 14.97 12.71 10.42 5.93 5.93 5.83 5.84 5.06 4.18 2.81 0.61 2.00 1.49 1.11 0.05 -0.61 -0.99 -0.33 -0.43 -0.11 0.19 -1.22 -1.43 -1.97
21.02 20.89 22.58 22.28 22.90 23.32 22.96 22.77 25.45 24.43 25.42 25.05 23.41 19.96 18.68 19.46 20.10 19.33 17.35 15.00 13.42 10.54 5.60 5.92 5.52 4.98 5.12 4.21 2.89 2.24 1.22 -2.65 -0.22 -1.72 -1.72 -2.48 -3.10 -3.50 -3.17 -1.63 -0.98 -2.16 -3.11
22.11 21.09 21.49 22.08 22.30 21.44 21.28 20.94 18.99 23.00 25.94 25.10 23.72 21.51 19.22 19.57 20.86 21.01 19.49 18.93 17.11 12.58 7.66 5.28 5.96 4.96 4.65 2.85 1.82 0.66 1.00 0.02 -6.62 -4.28 -3.47 -3.71 -4.71 -5.20 -6.04 -3.95 -2.86 -3.30 -3.81
21.89 21.08 22.17 22.18 21.70 20.91 19.94 19.94 20.18 20.00 19.02 19.26 22.37 20.78 20.18 21.13 22.04 22.77 22.12 19.59 13.72 6.52 5.93 5.28 4.64 3.81 2.97 1.75 0.87 -0.45 -1.11 -2.21 -3.56 -3.50 -4.20 -4.90 -7.33 -7.45 -6.64 -4.63 -4.46 -6.61 -5.76
21.63 21.60 22.20 21.73 21.06 20.16 19.85 20.02 20.30 19.43 18.14 16.22 13.09 19.66 17.63 21.09 21.43 21.43 21.27 14.14 11.92 9.06 5.74 3.38 2.97 2.86 1.79 0.49 -0.06 -1.52 -3.02 -3.15 -3.54 -5.43 -5.31 -7.01 -7.07 -8.37 -7.16 -6.24 -5.89 -8.01 -8.86
21.63 21.35 21.05 20.60 19.16 18.84 18.28 17.59 17.21 17.19 16.21 13.86 14.37 14.89 11.40 13.73 17.13 17.48 16.60 12.13 10.41 9.75 7.81 4.43 3.30 1.00 0.18 -0.45 -1.09 -2.72 -4.10 -5.75 -6.12 -6.72 -6.04 -5.51 -6.24 -7.92 -7.88 -7.78 -7.31 -7.41 -6.68
21.05 19.73 18.97 18.46 17.45 16.95 16.48 16.07 15.94 15.65 14.36 13.77 14.32 13.60 13.85 15.11 14.24 13.96 11.35 8.34 9.18 8.72 6.87 4.86 3.39 1.10 -0.67 -1.72 -2.93 -3.47 -5.81 -3.48 -4.08 -5.81 -6.22 -6.10 -7.96 -9.30 -7.58 -8.00 -8.39 -8.10 -7.15
18.95 17.31 16.59 15.94 15.81 14.77 14.69 15.65 14.41 13.75 13.86 12.86 12.61 9.97 17.59 10.57 11.10 10.63 10.00 9.77 8.50 7.32 6.77 5.48 3.79 2.22 -0.10 -2.15 -3.41 -3.75 -5.05 -5.41 -4.45 -6.44 -6.46 -8.46 -9.38 -8.22 -9.62 -8.90 -8.81 -7.34 -6.71
15.86 14.22 14.36 13.64 12.81 12.16 11.72 12.48 12.29 12.17 11.30 11.32 10.83 7.35 6.63 13.38 10.60 8.35 7.31 7.07 6.05 4.30 3.16 1.61 1.72 0.36 -1.18 -3.89 -2.34 -2.55 -3.16 -3.84 -3.52 -4.03 -6.02 -6.61 -7.52 -7.09 -7.99 -8.21 -7.89 -9.09 -7.21
13.53 12.55 11.20 10.74 10.22 10.24 11.10 9.71 10.23 8.70 10.28 9.09 7.76 7.01 6.38 6.81 8.75 8.22 7.56 7.23 5.49 4.30 2.59 -1.25 -2.27 -2.34 -2.34 -3.45 -3.93 -4.89 -5.16 -4.51 -4.21 -6.81 -8.32 -7.64 -7.57 -7.76 -9.44 -9.36 -9.12 -8.75 -8.54
11.41 11.11 10.71 9.44 7.84 9.43 8.87 8.82 7.79 7.17 6.87 7.14 6.25 5.51 5.03 5.27 5.06 5.09 5.22 3.77 1.62 1.24 0.13 -2.46 -3.02 -3.86 -5.40 -6.10 -4.93 -5.69 -6.31 -5.87 -8.06 -10.38 -11.02 -11.41 -10.89 -10.87 -11.60 -11.10 -10.17 -8.31 -7.38
9.97 9.93 10.00 8.53 7.81 8.05 7.84 7.18 5.91 5.50 4.99 5.13 5.20 4.62 4.45 3.65 3.99 4.10 2.94 0.76 -0.50 -0.98 -0.89 -0.46 -1.71 -4.56 -4.29 -4.31 -4.99 -5.24 -7.22 -8.61 -9.91 -10.49 -10.83 -10.65 -11.17 -10.30 -9.83 -9.89 -9.24 -7.83 -6.20
MSLP
1024.86 1025.18 1025.52 1025.83 1026.10 1026.31 1026.46 1026.77 1027.04 1027.30 1027.42 1027.41 1027.43 1027.37 1027.37 1027.34 1027.30 1027.21 1027.35 1027.46 1027.53 1027.75 1027.93 1028.01 1028.20 1028.35 1028.36 1028.38 1028.36 1028.26 1028.16 1028.05 1027.59 1027.41 1027.93 1028.20 1028.38 1028.46 1028.23 1027.92 1027.74 1026.98 1026.33
1024.78 1025.24 1025.58 1025.89 1026.26 1026.51 1026.74 1026.99 1027.21 1027.52 1027.77 1027.83 1027.83 1027.83 1027.78 1027.82 1027.91 1027.95 1028.15 1028.26 1028.38 1028.53 1028.61 1028.74 1028.83 1028.84 1028.91 1028.97 1028.90 1028.83 1028.75 1028.96 1028.80 1028.44 1028.42 1028.67 1028.83 1028.86 1028.70 1028.04 1027.72 1027.33 1026.89
1024.77 1025.14 1025.54 1025.90 1026.14 1026.38 1026.68 1026.92 1027.17 1027.41 1027.72 1027.97 1028.14 1028.23 1028.31 1028.47 1028.62 1028.81 1028.88 1028.99 1029.14 1029.31 1029.46 1029.52 1029.51 1029.36 1029.51 1029.55 1029.59 1029.50 1029.43 1029.37 1029.32 1029.20 1029.07 1029.26 1029.19 1029.11 1028.77 1028.56 1028.19 1027.30 1026.95
1024.42 1024.83 1025.23 1025.67 1026.07 1026.43 1026.72 1026.92 1027.15 1027.35 1027.59 1027.99 1028.22 1028.45 1028.70 1028.88 1029.04 1029.11 1029.38 1029.52 1029.78 1030.02 1030.20 1030.19 1030.11 1030.16 1030.28 1030.13 1030.14 1030.18 1029.97 1029.89 1029.99 1029.82 1029.73 1029.67 1029.71 1029.69 1029.41 1029.21 1028.40 1027.78 1026.99
1024.43 1024.84 1025.17 1025.63 1026.07 1026.44 1026.78 1027.16 1027.50 1027.62 1027.71 1027.96 1028.25 1028.54 1028.82 1028.95 1029.13 1029.41 1029.74 1029.97 1030.15 1030.41 1030.69 1030.78 1031.03 1031.29 1031.26 1031.21 1030.84 1030.89 1030.87 1030.62 1030.60 1030.56 1030.48 1030.29 1030.23 1030.23 1030.09 1029.98 1029.37 1028.59 1027.33
1023.74 1024.25 1024.85 1025.57 1026.19 1026.63 1026.96 1027.32 1027.61 1027.87 1028.11 1028.29 1028.44 1028.53 1028.71 1029.04 1029.77 1029.90 1029.92 1030.11 1030.48 1030.67 1030.85 1031.17 1031.41 1031.62 1031.90 1031.95 1031.88 1031.96 1031.83 1031.59 1031.50 1031.53 1031.23 1031.22 1031.17 1031.14 1030.93 1030.64 1029.88 1029.09 1027.59
1023.59 1024.04 1024.61 1025.12 1025.70 1026.19 1026.70 1027.00 1027.02 1027.30 1027.90 1028.29 1028.50 1028.54 1028.63 1028.86 1029.39 1029.90 1030.38 1030.49 1030.61 1030.87 1031.03 1031.44 1031.57 1032.02 1032.12 1032.12 1032.50 1032.66 1032.87 1032.60 1032.72 1032.37 1032.17 1032.20 1032.06 1032.00 1031.63 1031.12 1030.78 1030.40 1029.43
1023.35 1023.94 1024.50 1025.03 1025.60 1026.17 1026.54 1026.92 1027.24 1027.52 1027.82 1028.17 1028.74 1028.89 1028.91 1029.02 1029.73 1029.90 1030.34 1030.57 1031.01 1031.33 1031.51 1031.81 1031.95 1031.96 1032.53 1032.42 1032.64 1032.91 1033.27 1033.48 1033.44 1033.19 1032.96 1032.94 1032.96 1032.64 1032.20 1031.94 1031.55 1030.92 1029.95
1023.00 1023.47 1024.02 1024.59 1025.19 1025.81 1026.26 1026.83 1027.31 1027.61 1027.88 1028.21 1028.84 1029.14 1029.26 1029.46 1029.80 1030.14 1030.41 1030.88 1031.30 1031.74 1032.02 1032.34 1032.39 1032.20 1032.82 1033.10 1033.26 1033.55 1033.88 1034.30 1034.10 1034.09 1033.81 1033.75 1033.66 1033.33 1032.94 1032.31 1031.81 1031.04 1029.94
1022.48 1022.91 1023.64 1024.25 1024.88 1025.55 1026.26 1026.82 1027.35 1027.83 1028.23 1028.60 1028.99 1029.43 1029.45 1029.42 1029.87 1030.21 1030.45 1031.04 1031.69 1032.03 1032.45 1032.64 1032.93 1032.67 1033.01 1033.59 1033.73 1033.92 1034.23 1034.71 1034.59 1034.57 1034.34 1034.05 1033.98 1033.75 1033.44 1033.10 1032.59 1031.99 1031.33
1022.35 1022.82 1023.32 1023.73 1024.36 1025.05 1025.86 1026.64 1027.32 1027.95 1028.41 1029.02 1029.56 1029.78 1029.70 1029.56 1029.64 1030.12 1030.67 1031.17 1031.65 1032.07 1032.52 1032.90 1033.21 1033.43 1033.40 1033.70 1034.08 1034.27 1034.54 1035.12 1034.96 1034.65 1034.35 1034.01 1033.91 1033.71 1033.50 1033.42 1033.16 1032.79 1032.25
1022.29 1022.87 1023.35 1023.88 1024.50 1025.13 1025.76 1026.35 1026.72 1027.22 1028.06 1028.92 1029.68 1029.85 1030.00 1029.96 1029.71 1030.26 1031.08 1031.50 1031.84 1032.12 1032.59 1033.24 1033.50 1033.91 1033.85 1034.22 1034.43 1034.83 1035.22 1035.32 1035.03 1034.77 1034.49 1034.34 1034.24 1034.05 1033.91 1033.71 1033.42 1033.14 1032.78
1022.27 1022.75 1023.28 1023.90 1024.23 1024.64 1025.27 1025.97 1026.54 1027.22 1027.79 1028.48 1029.35 1029.79 1030.20 1030.07 1029.90 1030.22 1030.94 1031.73 1032.27 1032.59 1033.04 1033.33 1033.78 1034.45 1034.86 1034.80 1035.11 1035.47 1035.86 1035.53 1035.30 1034.98 1034.87 1034.83 1034.86 1034.71 1034.48 1033.94 1033.55 1033.16 1032.49
1021.95 1022.62 1023.13 1023.46 1023.92 1024.46 1025.08 1025.62 1026.00 1026.56 1026.97 1027.99 1028.86 1029.53 1030.04 1030.29 1030.24 1030.57 1031.01 1031.95 1032.47 1032.72 1033.10 1034.08 1034.53 1034.75 1035.28 1036.02 1035.98 1036.07 1036.13 1036.06 1036.04 1035.63 1035.44 1035.30 1035.06 1034.69 1034.36 1034.27 1033.84 1033.25 1032.57
1021.79 1022.24 1022.65 1023.14 1023.78 1024.07 1024.34 1024.83 1025.40 1026.08 1026.54 1027.02 1028.13 1028.88 1029.46 1029.87 1030.06 1030.45 1031.05 1031.87 1032.74 1033.44 1034.47 1034.88 1035.03 1035.14 1035.47 1035.79 1036.13 1036.43 1036.27 1036.12 1036.04 1036.00 1035.81 1035.51 1035.06 1034.73 1034.42 1034.37 1034.05 1033.50 1032.81
1021.31 1021.87 1022.19 1022.71 1023.29 1023.82 1024.38 1024.84 1025.34 1025.95 1026.47 1026.92 1027.67 1028.58 1029.26 1029.44 1029.86 1030.43 1031.22 1031.90 1032.57 1033.46 1034.24 1034.27 1034.52 1034.85 1035.04 1035.40 1035.71 1035.91 1036.10 1036.27 1036.36 1036.34 1036.00 1035.73 1035.42 1035.13 1034.80 1034.44 1034.08 1033.55 1032.79
1020.21 1021.02 1021.54 1022.10 1022.61 1023.26 1023.89 1024.43 1025.05 1025.80 1026.10 1026.64 1027.34 1028.10 1028.87 1029.09 1029.43 1029.77 1030.55 1031.04 1031.92 1032.94 1033.35 1033.90 1034.19 1034.39 1034.68 1035.19 1035.51 1035.75 1035.78 1036.22 1036.93 1036.38 1036.02 1035.73 1035.57 1035.32 1035.09 1034.48 1034.04 1033.62 1032.90
1019.79 1020.45 1020.85 1021.42 1022.10 1022.82 1023.50 1024.15 1024.79 1025.23 1025.68 1026.50 1027.16 1027.79 1028.39 1028.71 1028.74 1028.93 1029.51 1030.46 1031.58 1032.97 1033.31 1033.63 1033.83 1034.18 1034.58 1035.02 1035.37 1035.57 1035.74 1035.95 1036.17 1036.03 1035.83 1035.65 1035.61 1035.45 1035.00 1034.46 1034.04 1033.71 1033.08
1019.55 1020.02 1020.45 1021.07 1021.76 1022.46 1023.23 1023.93 1024.54 1025.15 1025.75 1026.57 1027.61 1027.70 1028.54 1028.43 1028.54 1028.83 1029.24 1030.41 1031.21 1032.09 1032.85 1033.34 1033.59 1033.91 1034.39 1034.84 1035.10 1035.39 1035.58 1035.63 1035.64 1035.63 1035.44 1035.40 1035.32 1035.32 1034.84 1034.52 1034.12 1033.80 1033.34
1019.07 1019.54 1020.10 1020.76 1021.51 1022.26 1022.93 1023.59 1024.29 1024.92 1025.61 1026.48 1027.16 1027.78 1029.06 1029.16 1028.47 1028.73 1029.33 1030.28 1030.99 1031.51 1032.06 1032.57 1032.98 1033.59 1034.14 1034.57 1034.85 1035.07 1035.20 1035.29 1035.20 1035.12 1035.00 1034.98 1034.97 1034.98 1034.65 1034.36 1034.04 1033.59 1032.94
1018.58 1019.36 1020.04 1020.78 1021.37 1021.99 1022.62 1023.22 1023.88 1024.59 1025.28 1026.04 1026.67 1027.51 1028.03 1028.22 1028.46 1028.81 1029.44 1030.11 1030.57 1031.03 1031.49 1031.97 1032.49 1033.15 1033.75 1034.18 1034.53 1034.60 1034.71 1034.51 1034.42 1034.47 1034.50 1034.49 1034.61 1034.56 1034.34 1034.21 1033.92 1033.41 1032.78
1018.49 1019.13 1019.89 1020.50 1021.22 1021.92 1022.46 1022.99 1023.65 1024.29 1024.93 1025.67 1026.51 1027.41 1027.60 1028.29 1028.44 1028.72 1029.14 1029.59 1030.08 1030.63 1031.01 1031.44 1031.90 1032.35 1032.85 1033.29 1033.63 1033.81 1033.75 1033.74 1033.73 1033.82 1033.90 1034.06 1034.20 1034.11 1034.02 1033.73 1033.46 1032.96 1032.34
1018.55 1019.21 1019.92 1020.60 1021.23 1021.79 1022.41 1022.85 1023.40 1023.96 1024.64 1025.31 1026.01 1026.89 1027.44 1027.27 1027.83 1028.27 1028.66 1029.13 1029.63 1030.16 1030.72 1031.22 1031.41 1031.75 1032.24 1032.70 1032.76 1032.84 1032.80 1032.76 1032.89 1033.08 1033.30 1033.42 1033.56 1033.53 1033.49 1033.25 1032.93 1032.58 1031.93
1018.42 1018.97 1019.60 1020.23 1020.90 1021.50 1022.05 1022.65 1023.17 1023.68 1024.20 1024.88 1025.62 1026.15 1026.59 1026.94 1027.20 1027.57 1028.00 1028.40 1028.95 1029.45 1029.97 1030.56 1030.89 1031.15 1031.39 1031.70 1031.94 1032.14 1032.26 1032.36 1032.46 1032.74 1033.06 1033.00 1033.01 1033.06 1033.09 1032.86 1032.58 1032.14 1031.68
1018.28 1018.80 1019.33 1019.85 1020.52 1021.01 1021.65 1022.21 1022.78 1023.31 1023.92 1024.48 1025.08 1025.60 1025.99 1026.36 1026.68 1026.96 1027.36 1027.89 1028.40 1028.79 1029.15 1029.68 1030.01 1030.24 1030.56 1030.79 1030.90 1031.12 1031.30 1031.52 1031.91 1032.25 1032.57 1032.80 1032.79 1032.79 1032.72 1032.48 1032.12 1031.64 1031.08
1018.04 1018.45 1018.87 1019.43 1019.95 1020.44 1020.99 1021.59 1022.19 1022.77 1023.32 1023.90 1024.40 1024.85 1025.23 1025.60 1025.85 1026.24 1026.67 1027.23 1027.66 1028.02 1028.28 1028.48 1028.73 1029.17 1029.40 1029.68 1029.92 1030.23 1030.58 1030.94 1031.18 1031.48 1031.90 1032.06 1032.15 1032.07 1032.07 1031.81 1031.47 1031.09 1030.44
Wind_Speed
5 5 5 4 4 4 4 5 5 5 4 5 5 5 5 5 5 6 6 6 7 7 7 8 8 6 5 5 4 5 4 5 4 2 3 7 9 10 11 10 10 11 11
6 6 5 5 5 5 5 5 5 5 5 5 5 5 5 5 4 5 6 6 7 8 8 8 7 5 6 6 4 5 4 5 4 5 5 6 8 10 11 12 11 10 12
7 7 6 6 6 6 6 6 6 6 5 5 5 5 5 5 6 6 7 7 8 8 7 8 7 7 6 5 5 5 4 3 4 4 5 5 6 8 11 10 11 12 10
9 8 8 7 6 6 6 7 7 6 6 6 6 6 5 5 5 6 6 7 7 8 8 8 8 8 7 5 5 5 5 4 4 4 4 5 6 9 7 9 11 10 12
8 8 8 7 7 7 7 7 6 6 6 7 7 6 5 5 4 6 6 6 7 7 7 8 9 9 12 11 4 6 6 5 4 4 4 5 6 8 9 10 10 10 12
11 10 8 9 8 7 7 7 7 7 7 7 6 6 6 5 7 7 7 7 7 6 6 6 7 7 8 11 11 14 12 7 6 4 5 6 7 8 8 9 9 11 8
9 9 10 10 10 10 9 9 10 10 9 7 7 7 8 8 11 10 8 6 6 6 6 5 5 5 4 6 9 8 11 12 11 6 5 6 7 9 10 11 10 10 10
9 9 9 10 9 10 10 10 10 9 9 9 8 7 7 7 11 11 10 8 7 6 6 5 5 6 7 5 5 5 6 7 8 5 6 6 7 9 9 9 9 11 10
9 10 11 11 11 11 11 11 9 9 9 8 8 8 8 7 11 11 9 7 7 7 6 5 5 6 8 6 5 5 4 5 5 8 8 8 9 11 11 7 7 9 8
9 9 10 10 10 11 11 10 9 9 8 7 8 7 7 9 9 9 7 5 7 6 6 6 7 6 8 7 5 4 3 4 5 5 5 5 7 7 10 8 7 7 8
6 7 9 10 10 11 11 10 9 9 9 8 8 7 6 7 9 9 8 6 6 6 5 4 4 5 7 8 7 5 5 3 5 3 3 4 4 5 6 7 7 7 6
7 7 8 8 8 8 10 9 10 10 11 9 8 7 5 5 9 11 8 7 9 6 6 4 4 6 6 6 6 8 7 3 3 3 4 4 5 6 7 8 8 7 7
7 8 8 9 9 10 11 12 11 10 8 8 7 7 6 5 6 13 12 10 10 7 5 7 9 7 6 6 7 6 4 3 3 3 3 4 4 5 8 7 8 9 9
8 9 9 10 11 10 9 9 9 9 8 8 8 7 6 6 6 6 8 7 9 7 9 5 5 6 7 5 2 2 2 3 3 3 3 4 4 4 5 5 6 7 8
8 9 10 9 10 9 9 9 9 8 9 9 7 7 9 9 8 10 9 7 6 7 7 3 3 2 3 2 1 1 1 1 2 2 3 4 4 4 4 5 4 6 7
10 9 9 8 9 8 8 7 12 11 15 15 12 10 6 8 16 15 12 11 12 15 3 3 3 3 3 3 3 2 2 2 2 3 3 3 4 4 5 5 5 6 7
9 10 8 9 9 9 8 8 8 9 15 13 14 15 14 13 17 17 15 14 16 10 2 3 3 3 3 4 3 3 3 2 1 4 3 3 3 4 4 5 5 5 7
10 13 9 9 9 8 8 8 7 9 9 7 12 13 16 17 16 16 17 12 7 2 3 4 4 4 4 4 4 4 4 3 4 4 4 3 3 4 4 5 5 6 7
10 9 9 8 8 9 8 9 8 9 8 8 3 12 10 17 15 15 15 6 7 6 5 5 4 4 4 4 4 4 4 5 4 4 4 4 3 3 4 4 5 7 7
10 11 10 9 9 9 9 9 9 9 9 9 9 9 5 3 8 8 6 6 6 5 5 5 4 4 5 5 5 4 5 5 5 5 5 4 4 4 5 5 5 6 7
8 9 11 8 8 9 9 9 9 9 9 9 9 8 13 9 8 8 7 6 6 6 6 5 5 5 5 5 5 6 6 6 6 5 4 4 3 4 4 4 6 6 7
8 9 9 9 8 9 9 9 9 9 9 9 8 8 19 7 7 7 7 7 7 6 5 5 5 6 6 7 7 7 7 7 6 6 5 4 4 5 4 5 5 6 7
9 10 9 8 8 9 9 9 9 10 9 9 8 8 8 9 8 8 8 7 6 6 6 6 6 6 6 6 7 7 7 7 6 6 5 5 5 5 4 5 5 6 7
9 10 10 9 9 9 9 9 9 9 10 9 9 8 8 9 9 9 7 7 6 6 6 6 7 8 7 8 7 7 7 6 5 5 7 5 5 4 5 5 6 7 8
9 9 9 10 9 9 9 9 9 9 9 9 8 8 8 8 8 8 7 6 6 6 7 7 7 9 12 12 10 11 10 11 9 7 5 6 7 6 5 5 6 7 9
9 10 9 8 9 9 9 9 9 9 9 9 8 8 8 8 8 7 7 7 6 7 8 7 9 13 12 10 12 12 11 12 11 12 7 6 6 6 5 7 8 7 9
Wind_Direction
158 146 141 128 117 110 104 98 90 90 83 79 75 76 77 80 82 91 94 97 94 91 81 77 70 59 59 51 44 35 35 7 331 31 9 8 0 353 351 350 346 343 342
171 166 157 145 136 124 118 114 115 107 90 91 94 92 84 80 79 82 86 84 85 82 75 73 67 62 64 51 47 50 36 32 353 337 349 2 349 356 344 346 346 342 336
176 174 167 161 159 152 146 142 137 133 126 116 98 85 82 79 81 79 86 86 82 79 77 70 59 54 52 51 45 43 27 26 17 341 345 351 344 357 346 344 342 334 332
184 183 180 175 168 164 154 153 152 147 133 118 108 109 107 102 98 98 97 97 93 86 79 71 62 56 46 49 48 33 25 30 14 6 358 346 350 352 344 344 336 341 328
185 187 190 175 170 166 164 158 148 145 136 132 130 124 121 115 111 119 112 110 109 102 92 79 68 66 64 48 46 44 27 28 24 8 4 354 359 349 352 340 329 332 317
192 196 184 175 171 172 163 158 152 147 147 145 138 128 120 104 116 122 132 124 117 115 107 100 90 86 77 72 69 61 46 27 39 11 10 0 354 349 343 342 337 347 342
196 194 187 183 178 175 170 169 166 163 160 157 150 144 133 128 129 124 120 119 122 117 116 114 94 92 78 94 76 78 57 50 42 21 13 9 343 350 342 337 339 326 308
197 199 190 182 178 173 174 177 172 167 166 161 160 150 136 126 131 129 133 127 120 111 105 104 103 83 66 81 84 78 62 44 32 21 17 11 0 348 346 333 325 312 306
198 197 190 184 178 176 179 179 176 172 168 164 159 151 142 137 147 145 144 136 127 115 101 100 92 80 77 74 79 78 74 38 30 27 28 24 15 4 2 336 346 338 335
200 196 187 183 176 180 181 176 172 173 166 154 156 157 147 135 150 154 153 141 145 137 118 101 88 78 76 77 72 70 71 27 5 11 20 20 12 1 5 4 346 341 341
176 176 179 177 174 176 169 169 167 169 164 166 165 154 138 144 141 148 152 167 162 150 141 123 104 80 86 73 71 60 50 8 4 2 11 19 7 1 358 354 350 339 332
177 178 175 169 171 166 162 163 165 161 163 168 176 166 155 149 142 126 143 158 153 146 138 137 121 98 80 81 75 57 48 26 5 11 17 16 357 350 345 340 335 330 316
164 169 166 166 167 167 169 171 171 170 168 169 184 181 173 167 153 141 126 131 131 123 136 143 119 108 93 68 66 58 29 11 8 22 10 1 343 330 321 331 332 330 319
169 172 170 171 173 173 176 179 174 175 168 172 186 186 174 175 155 143 134 135 129 128 117 111 129 106 93 104 63 49 25 17 16 5 343 326 313 327 329 343 329 335 320
178 178 181 183 182 179 181 179 182 184 182 172 179 175 177 187 183 167 158 160 154 150 125 138 161 165 175 159 171 221 204 337 339 337 310 315 323 332 333 340 330 328 322
183 183 182 172 179 179 176 175 188 178 188 185 177 177 186 187 173 162 155 146 155 145 155 171 183 194 209 213 227 214 220 237 278 282 285 300 314 324 330 326 326 326 319
182 175 171 175 173 169 172 170 163 179 183 180 180 185 180 174 177 176 166 169 160 157 173 182 209 195 205 216 230 238 249 231 258 260 275 282 296 302 307 320 326 323 317
182 180 175 174 172 169 169 168 164 168 162 160 179 179 182 185 187 184 178 168 152 152 196 213 214 206 213 221 220 227 229 236 244 253 260 266 276 293 306 310 318 317 314
181 180 177 172 170 166 164 166 167 162 160 152 148 181 181 188 190 189 185 177 199 205 200 214 215 212 216 220 226 227 236 245 252 254 253 250 255 268 284 294 299 301 297
186 180 172 167 162 166 167 167 167 169 166 169 176 182 167 171 195 188 185 183 197 212 204 213 206 209 216 219 219 221 229 230 238 237 245 248 252 254 274 289 291 302 302
173 168 169 166 170 173 173 176 174 172 175 177 184 180 180 186 192 201 196 201 210 210 210 214 211 213 213 214 216 219 228 243 237 243 249 244 240 258 251 274 284 281 287
169 164 169 172 171 176 180 177 176 180 180 180 181 190 193 195 206 211 212 214 214 216 213 213 215 215 212 209 210 216 222 229 232 228 239 238 239 245 251 266 277 282 290
169 169 176 176 179 171 172 177 180 183 184 189 185 185 200 209 210 216 218 218 214 210 203 207 217 220 217 215 217 220 223 226 226 220 225 233 234 248 247 268 279 287 293
175 178 179 178 177 181 183 184 188 189 187 190 192 197 201 209 216 217 215 212 211 212 208 206 215 220 222 217 215 219 227 234 220 218 219 234 244 236 245 256 267 275 284
179 181 182 178 179 184 180 186 191 192 194 196 199 203 206 211 216 219 217 212 213 216 219 212 216 222 225 221 221 219 219 222 212 209 206 222 237 244 247 256 271 282 283
184 185 182 177 182 184 186 187 191 192 196 199 204 205 206 210 217 217 215 214 216 221 225 223 222 222 224 227 227 224 218 216 216 208 205 213 224 233 235 247 260 271 285